Volver al catálogo

CZ-6A DEB

ActivoPO
NORAD 60778·DEBRIS·🇨🇳 China

Lanzado Aug 6, 2024 desde Taiyuan Satellite Launch Center

Loading…

Próximos Pases (próximas 24 horas)

TLE

ActualizadoSource: Space-Track

Época: Sep 14, 2026, 06:01 UTC

1 60778U 24140FD  26257.25095622  .00312518  00000-0  64970-2 0  9990
2 60778  88.9888 255.7712 0023370 163.3586 196.8445 15.44231161113106

Sigue CZ-6A DEB en tiempo real con AllMySat

Download on the App Store